Waarnemingen

Advertentie
Mijn weer
A12-CPP, Nederland (6205): temperatuur & dauwpunt: 14.07.2018 04:00:00 - 20.07.2018 04:00:00 (CEST)A12-CPP, Nederland (6205): windsnelheid & windstoten: 14.07.2018 04:00:00 - 20.07.2018 04:00:00 (CEST)A12-CPP, Nederland (6205): windrichting: 14.07.2018 04:00:00 - 20.07.2018 04:00:00 (CEST)A12-CPP, Nederland (6205): luchtdruk: 14.07.2018 04:00:00 - 20.07.2018 04:00:00 (CEST)A12-CPP, Nederland (6205): zicht: 14.07.2018 04:00:00 - 20.07.2018 04:00:00 (CEST)
Datum & Tijd tt [°C] td [°C] ff [km/u] ff [kn] fx [km/u] fx [kn] dd ppp [hPa] vv [km]
20.07.2018 04:00:00 17,4 13,3 21 11 22 12 ZZW 1017,1 10
20.07.2018 03:00:00 17,4 12,7 21 11 22 12 ZZW 1017,5 10
20.07.2018 02:00:00 17,3 13,0 16 9 18 10 - 1017,7 10
20.07.2018 01:00:00 17,3 12,8 15 8 14 8 Z 1018,1 10
20.07.2018 00:00:00 17,4 12,7 13 7 14 8 Z 1018,3 10
19.07.2018 23:00:00 17,5 12,2 13 7 14 8 Z 1018,5 10
19.07.2018 22:00:00 17,5 12,5 11 6 14 8 ZZW 1018,8 10
19.07.2018 21:00:00 17,7 11,9 11 6 14 8 ZZW 1019,0 10
19.07.2018 20:00:00 17,8 12,4 13 7 14 8 ZZW 1019,4 10
19.07.2018 19:00:00 17,8 12,4 11 6 11 6 ZZW 1019,6 10
19.07.2018 18:00:00 17,5 12,4 9 5 14 8 ZZW 1020,0 10
19.07.2018 17:00:00 17,5 12,2 8 4 11 6 Z 1020,4 10
19.07.2018 16:00:00 17,2 12,5 5 3 11 6 - 1020,6 10
19.07.2018 15:00:00 17,1 11,7 5 3 11 6 Z 1020,6 10
19.07.2018 14:00:00 16,8 12,5 4 2 11 6 - 1020,8 10
19.07.2018 13:00:00 16,6 12,7 4 2 7 4 - 1021,0 10
19.07.2018 12:00:00 16,8 12,5 5 3 7 4 - 1021,0 10
19.07.2018 11:00:00 16,4 12,6 5 3 7 4 NW 1021,0 10
19.07.2018 10:00:00 16,2 12,6 5 3 11 6 N 1020,9 10
19.07.2018 09:00:00 16,2 12,6 5 3 11 6 N 1020,7 10
19.07.2018 08:00:00 16,1 12,7 9 5 11 6 N 1020,7 10
19.07.2018 07:00:00 16,2 12,3 5 3 11 6 N 1020,6 10
19.07.2018 06:00:00 16,2 12,9 8 4 11 6 N 1020,6 10
19.07.2018 05:00:00 16,2 13,1 8 4 11 6 N 1020,5 10
19.07.2018 04:00:00 16,3 13,1 9 5 11 6 N 1020,4 10
19.07.2018 03:00:00 16,4 13,2 9 5 11 6 N 1020,5 10
19.07.2018 02:00:00 16,5 13,0 11 6 14 8 N 1020,5 10
19.07.2018 01:00:00 16,6 13,0 15 8 18 10 N 1020,4 10
19.07.2018 00:00:00 16,7 13,0 15 8 14 8 N 1020,3 10
18.07.2018 23:00:00 16,9 12,9 16 9 14 8 N 1020,0 10
18.07.2018 22:00:00 17,1 12,9 18 10 18 10 N 1019,7 10
18.07.2018 21:00:00 17,2 13,7 18 10 18 10 N 1019,3 10
18.07.2018 20:00:00 17,4 12,9 15 8 14 8 NNW 1019,2 10
18.07.2018 19:00:00 17,1 12,3 18 10 18 10 NNW 1019,0 10
18.07.2018 18:00:00 17,0 12,3 13 7 18 10 W 1019,1 10
18.07.2018 17:00:00 16,9 12,6 18 10 18 10 WZW 1019,1 10
18.07.2018 16:00:00 16,8 12,1 21 11 22 12 WZW 1018,9 10
18.07.2018 15:00:00 17,1 13,5 21 11 22 12 WZW 1018,5 10
18.07.2018 14:00:00 17,1 14,9 16 9 18 10 ZW 1018,4 10
18.07.2018 13:00:00 17,3 14,5 18 10 25 14 ZZW 1018,0 10
18.07.2018 12:00:00 17,0 14,0 15 8 18 10 ZZW 1017,8 10
18.07.2018 11:00:00 16,9 14,2 15 8 18 10 ZZW 1017,7 10
18.07.2018 10:00:00 16,8 14,4 18 10 18 10 ZW 1017,4 10
18.07.2018 09:00:00 16,5 14,2 18 10 18 10 ZW 1017,2 10
18.07.2018 08:00:00 16,5 13,6 18 10 18 10 WZW 1017,0 10
18.07.2018 07:00:00 16,4 13,6 16 9 18 10 WZW 1016,6 10
18.07.2018 06:00:00 16,3 13,1 18 10 22 12 W 1016,4 10
18.07.2018 05:00:00 16,4 13,1 18 10 22 12 WNW 1016,2 10
18.07.2018 04:00:00 16,4 13,3 22 12 25 14 W 1015,9 10
18.07.2018 03:00:00 16,3 13,2 26 14 25 14 WNW 1015,7 10
18.07.2018 02:00:00 16,4 12,4 28 15 29 16 NW 1015,3 10
18.07.2018 01:00:00 16,4 13,9 28 15 25 14 NW 1015,3 10
18.07.2018 00:00:00 16,6 14,3 24 13 29 16 NW 1015,0 10
17.07.2018 23:00:00 16,6 14,0 29 16 32 18 NW 1014,6 10
17.07.2018 22:00:00 16,9 14,9 29 16 32 18 NW 1014,0 10
17.07.2018 21:00:00 17,3 15,3 29 16 29 16 NW 1013,4 10
17.07.2018 20:00:00 17,4 15,4 29 16 29 16 NW 1012,6 10
17.07.2018 19:00:00 17,5 16,3 29 16 29 16 NW 1012,2 10
17.07.2018 18:00:00 17,9 16,6 18 10 29 16 WNW 1011,9 10
17.07.2018 17:00:00 18,2 17,0 16 9 25 14 ZW 1011,7 10
17.07.2018 16:00:00 17,9 16,9 22 12 22 12 ZZO 1011,7 10
17.07.2018 15:00:00 18,0 16,6 26 14 25 14 ZZO 1011,4 10
17.07.2018 14:00:00 18,4 16,6 28 15 25 14 ZZO 1011,6 10
17.07.2018 13:00:00 18,3 16,1 22 12 25 14 ZZO 1011,8 10
17.07.2018 12:00:00 18,1 15,9 26 14 36 19 ZZO 1011,8 10
17.07.2018 11:00:00 18,0 15,6 26 14 32 18 ZO 1011,5 10
17.07.2018 10:00:00 18,0 15,6 21 11 29 16 ZO 1011,5 10
17.07.2018 09:00:00 17,9 15,5 29 16 32 18 ZO 1011,7 10
17.07.2018 08:00:00 18,1 15,2 22 12 29 16 ZO 1011,8 10
17.07.2018 07:00:00 17,9 15,3 26 14 32 18 ZO 1011,8 10
17.07.2018 06:00:00 18,0 15,0 26 14 32 18 ZO 1012,0 10
17.07.2018 05:00:00 17,8 15,1 34 18 32 18 ZO 1012,4 10
17.07.2018 04:00:00 17,8 15,4 28 15 32 18 ZO 1012,6 10
17.07.2018 03:00:00 17,7 15,5 16 9 25 14 - 1013,1 10
17.07.2018 02:00:00 18,1 15,2 24 13 25 14 ZZO 1013,5 10
17.07.2018 01:00:00 18,1 15,4 26 14 29 16 ZZO 1013,5 10
17.07.2018 00:00:00 18,1 15,4 31 17 29 16 ZZO 1013,7 10
16.07.2018 23:00:00 17,9 15,8 31 17 29 16 ZO 1013,7 10
16.07.2018 22:00:00 17,9 15,9 24 13 25 14 ZZO 1013,6 10
16.07.2018 21:00:00 17,9 16,2 29 16 32 18 ZO 1013,5 10
16.07.2018 20:00:00 18,0 16,1 31 17 32 18 ZO 1013,4 10
16.07.2018 19:00:00 17,8 16,2 31 17 29 16 ZO 1013,6 10
16.07.2018 18:00:00 17,9 15,9 34 18 32 18 ZO 1013,9 10
16.07.2018 17:00:00 17,7 15,8 31 17 32 18 ZZO 1014,0 10
16.07.2018 16:00:00 17,7 15,4 31 17 32 18 ZO 1014,3 10
16.07.2018 15:00:00 17,6 15,3 34 18 32 18 ZO 1014,6 10
16.07.2018 14:00:00 17,5 15,2 31 17 36 19 ZO 1014,8 10
16.07.2018 13:00:00 17,5 15,0 35 19 36 19 ZO 1015,0 10
16.07.2018 12:00:00 17,4 14,8 31 17 32 18 ZO 1015,0 10
16.07.2018 11:00:00 17,5 14,6 35 19 32 18 ZO 1015,0 10
16.07.2018 10:00:00 17,5 14,3 34 18 32 18 ZZO 1015,0 10
16.07.2018 09:00:00 17,5 14,6 34 18 32 18 ZZO 1015,1 10
16.07.2018 08:00:00 17,5 14,5 31 17 29 16 ZZO 1015,1 3,7
16.07.2018 07:00:00 17,4 14,5 31 17 29 16 ZZO 1015,1 10
16.07.2018 06:00:00 17,3 14,7 28 15 29 16 ZZO 1015,3 10
16.07.2018 05:00:00 17,5 15,2 29 16 29 16 ZZO 1015,3 10
16.07.2018 04:00:00 17,4 15,2 28 15 25 14 ZZO 1015,7 10
16.07.2018 03:00:00 17,4 14,8 28 15 25 14 ZZO 1016,0 10
16.07.2018 02:00:00 17,5 14,3 28 15 25 14 ZZO 1016,3 10
16.07.2018 01:00:00 17,4 14,8 28 15 25 14 ZZO 1016,4 10
16.07.2018 00:00:00 17,4 15,1 28 15 25 14 ZZO 1016,5 10
15.07.2018 23:00:00 17,4 15,2 28 15 25 14 ZZO 1016,1 10
15.07.2018 22:00:00 17,4 15,0 28 15 25 14 ZZO 1015,9 10
15.07.2018 21:00:00 17,4 15,3 29 16 25 14 ZZO 1015,7 10
15.07.2018 20:00:00 17,4 15,3 28 15 25 14 Z 1015,9 10
15.07.2018 19:00:00 17,5 15,4 29 16 29 16 Z 1016,1 10
15.07.2018 18:00:00 17,4 15,4 29 16 29 16 Z 1016,5 10
15.07.2018 17:00:00 17,3 15,4 28 15 25 14 Z 1016,8 10
15.07.2018 16:00:00 17,3 15,1 28 15 25 14 Z 1017,0 10
15.07.2018 15:00:00 17,3 14,9 28 15 32 18 Z 1017,1 4,7
15.07.2018 14:00:00 17,3 14,7 28 15 32 18 Z 1017,2 10
15.07.2018 13:00:00 17,2 14,7 29 16 29 16 Z 1017,3 10
15.07.2018 12:00:00 17,0 14,7 28 15 32 18 Z 1017,3 5
15.07.2018 11:00:00 17,0 14,6 31 17 32 18 ZZW 1017,2 10
15.07.2018 10:00:00 16,9 14,9 28 15 29 16 ZZW 1017,2 10
15.07.2018 09:00:00 16,8 15,0 28 15 29 16 ZZW 1017,2 10
15.07.2018 08:00:00 16,7 15,0 28 15 29 16 ZZW 1017,3 10
15.07.2018 07:00:00 16,6 14,9 28 15 29 16 ZZW 1017,1 10
15.07.2018 06:00:00 16,6 14,9 26 14 25 14 ZZW 1017,1 10
15.07.2018 05:00:00 16,5 14,7 24 13 25 14 ZZW 1017,3 10
15.07.2018 04:00:00 16,5 14,5 24 13 25 14 ZZW 1017,5 10
15.07.2018 03:00:00 16,5 14,6 24 13 25 14 ZZW 1017,9 10
15.07.2018 02:00:00 16,5 14,6 29 16 25 14 ZZW 1018,1 10
15.07.2018 01:00:00 16,4 14,7 26 14 25 14 ZZW 1018,5 10
15.07.2018 00:00:00 16,5 14,6 28 15 29 16 ZZW 1018,6 10
14.07.2018 23:00:00 16,5 14,5 26 14 25 14 ZZW 1018,5 10
14.07.2018 22:00:00 16,5 14,3 24 13 25 14 ZZW 1018,4 10
14.07.2018 21:00:00 16,8 14,1 28 15 29 16 ZZW 1018,4 10
14.07.2018 20:00:00 16,8 14,2 29 16 29 16 ZZW 1018,7 10
14.07.2018 19:00:00 17,2 14,1 31 17 29 16 ZZW 1019,2 10
14.07.2018 18:00:00 16,8 14,2 31 17 29 16 ZZW 1019,5 10
14.07.2018 17:00:00 16,6 14,0 29 16 32 18 ZZW 1019,8 10
14.07.2018 16:00:00 16,4 13,9 31 17 29 16 ZZW 1020,2 10
14.07.2018 15:00:00 16,2 13,8 29 16 29 16 ZZW 1020,5 10
14.07.2018 14:00:00 16,2 13,9 18 10 22 12 ZZW 1020,7 10
14.07.2018 13:00:00 15,9 13,5 22 12 22 12 ZZW 1020,9 10
14.07.2018 12:00:00 15,8 13,7 18 10 18 10 ZW 1020,9 10
14.07.2018 11:00:00 15,3 13,1 18 10 18 10 ZW 1021,2 10
14.07.2018 10:00:00 15,0 12,1 13 7 14 8 WZW 1021,3 10
14.07.2018 09:00:00 14,9 11,6 15 8 14 8 WZW 1021,4 10
14.07.2018 08:00:00 14,7 11,6 13 7 14 8 W 1021,3 10
14.07.2018 07:00:00 14,6 11,3 15 8 18 10 W 1021,1 10
14.07.2018 06:00:00 14,7 11,6 15 8 14 8 W 1021,0 10
14.07.2018 05:00:00 14,6 12,1 11 6 14 8 W 1021,2 10
14.07.2018 04:00:00 14,6 12,1 8 4 11 6 W 1021,5 10

tt = temperatuur
td = dauwpunt
ff = windsnelheid
fx = windstoten
dd = windrichting
ppp = luchtdruk
vv = zicht

Weerstations in de omgeving